Dallas Love, TX

1:01 AM CDT on August 21, 2017 (GMT -0500)
Dallas Love

Weather History for KDAL - November, 2013

Change the Weather History Date:

Friday, November 1, 2013

  Actual Average Record
Temperature  
Mean Temperature 64 °F -  
Max Temperature 77 °F 69 °F 87 °F (2012)
Min Temperature 53 °F 52 °F 41 °F (2014)
Degree Days  
Heating Degree Days 1    
Growing Degree Days 14 (Base 50)    
Moisture  
Dew Point 45 °F    
Average Humidity 53    
Maximum Humidity 77    
Minimum Humidity 35    
Precipitation  
Precipitation 0.00 in - - ()
Sea Level Pressure  
Sea Level Pressure 29.89 in    
Wind  
Wind Speed 5 mph (ESE)    
Max Wind Speed 15 mph    
Max Gust Speed 20 mph    
Visibility 10 miles    
Events      
Averages and records for this station are not official NWS values.
T = Trace of Precipitation, MM = Missing Value Source: NWS Daily Summary

Daily Weather History Graph

Daily Weather History Graph

Search for Another Location

Airport or City:

Trip Planner

Search our weather history database for the weather conditions in past years. The results will help you decide how hot, cold, wet, or windy it might be!

Date:

Astronomy

Nov. 01, 2013 Rise Set
Actual Time 7:45 AM CDT 6:36 PM CDT
Civil Twilight 7:19 AM CDT 7:01 PM CDT
Nautical Twilight 6:50 AM CDT 7:30 PM CDT
Astronomical Twilight 6:21 AM CDT 7:59 PM CDT
Moon 5:44 AM CDT (11/1) 5:25 PM CDT (11/1)
Length of Visible Light 11h 41m
Length of Day
10h 50m
Waning Crescent, 4% of the Moon is Illuminated
Nov 1
Waning Crescent
Nov 3
New
Nov 9
First Quarter
Nov 17
Full
Nov 25
Last Quarter

Hourly Weather History & Observations

Time (CDT) Temp. Dew Point Humidity Pressure Visibility Wind Dir Wind Speed Gust Speed Precip Events Conditions
12:53 AM 55.0 °F 46.9 °F 74% 29.86 in 10.0 mi Calm Calm - N/A   Clear
1:53 AM 55.9 °F 46.0 °F 69% 29.85 in 10.0 mi Calm Calm - N/A   Clear
2:53 AM 53.1 °F 46.0 °F 77% 29.85 in 10.0 mi SE 5.8 mph - N/A   Clear
3:53 AM 53.1 °F 46.0 °F 77% 29.84 in 10.0 mi Calm Calm - N/A   Clear
4:53 AM 54.0 °F 45.0 °F 72% 29.83 in 10.0 mi SE 3.5 mph - N/A   Clear
5:53 AM 54.0 °F 45.0 °F 72% 29.84 in 10.0 mi Calm Calm - N/A   Clear
6:53 AM 53.1 °F 45.0 °F 74% 29.85 in 10.0 mi Calm Calm - N/A   Clear
7:53 AM 53.1 °F 44.1 °F 71% 29.86 in 10.0 mi SE 4.6 mph - N/A   Clear
8:53 AM 59.0 °F 45.0 °F 60% 29.87 in 10.0 mi SSE 8.1 mph - N/A   Clear
9:53 AM 63.0 °F 46.0 °F 54% 29.88 in 10.0 mi South 9.2 mph - N/A   Clear
10:53 AM 69.1 °F 43.0 °F 39% 29.87 in 10.0 mi SSE 15.0 mph - N/A   Clear
11:53 AM 72.0 °F 44.1 °F 37% 29.86 in 10.0 mi South 15.0 mph - N/A   Clear
12:53 PM 73.9 °F 46.0 °F 37% 29.84 in 10.0 mi SSE 12.7 mph 18.4 mph N/A   Clear
1:53 PM 75.0 °F 46.9 °F 37% 29.82 in 10.0 mi SSE 9.2 mph - N/A   Clear
2:53 PM 75.9 °F 48.0 °F 37% 29.82 in 10.0 mi SSE 5.8 mph - N/A   Partly Cloudy
3:53 PM 75.9 °F 46.0 °F 35% 29.82 in 10.0 mi Calm Calm - N/A   Clear
4:53 PM 73.9 °F 46.0 °F 37% 29.83 in 10.0 mi NW 5.8 mph - N/A   Mostly Cloudy
5:53 PM 73.0 °F 45.0 °F 37% 29.86 in 10.0 mi NNW 8.1 mph - N/A   Scattered Clouds
6:53 PM 70.0 °F 48.0 °F 46% 29.90 in 10.0 mi North 6.9 mph - N/A   Partly Cloudy
7:53 PM 66.9 °F 46.9 °F 49% 29.94 in 10.0 mi North 6.9 mph - N/A   Scattered Clouds
8:53 PM 66.0 °F 46.0 °F 48% 29.98 in 10.0 mi North 8.1 mph - N/A   Partly Cloudy
9:53 PM 66.0 °F 43.0 °F 43% 30.02 in 10.0 mi North 10.4 mph - N/A   Partly Cloudy
10:53 PM 64.9 °F 39.9 °F 40% 30.06 in 10.0 mi North 12.7 mph 19.6 mph N/A   Clear
11:53 PM 63.0 °F 39.9 °F 43% 30.09 in 10.0 mi North 8.1 mph - N/A   Clear